Location: Central Falls
(41.8900°N, 71.3929°W)
Time: 06:48:37
(UTC+00:00)

Vanguard 3 - Pass Details

Date: 08 December 2023
Orbit: 508 x 3239 km, 33.4° (Epoch: 01 March)

Event Time Altitude Azimuth Distance (km) Brightness Sun altitude
Rises 00:48:55 0° 227° (SW) 6,969 12.4 -39.1°
Reaches altitude 10° 00:54:26 10° 221° (SW) 5,682 11.7 -40.1°
Enters shadow 01:06:27 36° 179° (S) 3,128 9.9 -42.4°
